[[{"header":{"parameterUnit":"m.s-1","parameterCategory":2,"la1":30.2991,"la2":30.254,"lo1":-89.0895,"lo2":-89.0444,"dy":0.0017,"dx":0.0017,"nx":28,"ny":28,"refTime":"2025-01-26T03:00:00:Z","depth":"0","parameterNumber":2,"parameterNumberName":"U-component_of_CURRENTS"},"data":[0,0,0,0,0,0,0,0,0,0,0,0,0,0,0,0,0,0,0,0,0,0,0,0,0,0,0,0,0,0,0,0,0,0,0,0,0,0,0,0,0,0,0,0,0,0,0,0,0,0,0,0,0,0,0,0,0,0,0.217,0.217,0,0.2076,0.2074,0.2073,0.2037,0.2038,0.2038,0.2039,0.1977,0.1975,0.1972,0,0,0,0,0,0,0,0,0,0,0,0,0,0.2306,0.2304,0.2171,0.2169,0.2168,0.2076,0.2074,0.2073,0.2037,0.2038,0.2038,0.2039,0.1977,0.1975,0.1972,0,0,0,0,0,0,0,0,0,0,0,0,0,0.2232,0.2303,0.2171,0.2141,0.2137,0.2076,0.2074,0.2072,0.2037,0.2038,0.2038,0.2039,0.1978,0.1975,0.1972,0.194,0,0,0.1962,0.1961,0,0,0,0,0,0,0,0,0.2236,0.2226,0.2146,0.2143,0.2139,0.207,0.21,0.203,0.2037,0.2073,0.2039,0.2039,0.2012,0.2006,0.1984,0.1937,0.1934,0.1962,0.196,0.1959,0.1958,0,0,0,0,0,0,0,0.2241,0.223,0.2131,0.2145,0.214,0.2127,0.2117,0.2086,0.2039,0.207,0.2068,0.206,0.201,0.1987,0.1982,0.1933,0.1962,0.196,0.1958,0.1956,0.1937,0.1938,0,0,0,0,0,0,0.2256,0.2235,0.2134,0.2129,0.2192,0.2124,0.2113,0.209,0.2039,0.2032,0.2059,0.2058,0.1992,0.1986,0.198,0.1993,0.1959,0.1956,0.1954,0.1936,0.1937,0.1939,0,0,0,0,0,0,0.2259,0.2247,0.2138,0.2182,0.2168,0.2122,0.2096,0.2088,0.207,0.203,0.2024,0.2051,0.1992,0.1984,0.1961,0.1988,0.1955,0.1952,0.1934,0.1936,0.1938,0.1984,0,0,0,0,0,0,0.2263,0.2248,0.2243,0.2182,0.2166,0.2108,0.2095,0.2086,0.2065,0.2063,0.2021,0.2015,0.1992,0.1966,0.1958,0.1984,0.1949,0.1932,0.1935,0.1937,0.1981,0.1988,0.1993,0,0,0,0,0,0.2268,0.2253,0.2243,0.2232,0.2157,0.2108,0.2098,0.2067,0.2064,0.2054,0.2032,0.2017,0.1978,0.1964,0.1954,0.1979,0.1931,0.1934,0.1937,0.1979,0.1987,0.1993,0,0,0,0,0,0,0.2307,0.2247,0.2234,0.2202,0.2164,0.2103,0.2088,0.207,0.2041,0.2044,0.2012,0.2004,0.2006,0.1982,0.1967,0.1986,0.1961,0.1962,0.1996,0.2003,0.2009,0.2009,0.1947,0,0,0,0,0,0.2315,0.2288,0.2233,0.2209,0.2189,0.2141,0.2121,0.21,0.2064,0.2051,0.2024,0.201,0.2009,0.1996,0.1986,0.1972,0.1972,0.1992,0.1998,0.2003,0.2,0.2035,0.2044,0.1949,0.1949,0.1949,0,0,0.2324,0.2288,0.2273,0.2217,0.2181,0.2147,0.213,0.2097,0.2083,0.205,0.2027,0.2027,0.2013,0.2014,0.2013,0.1994,0.2031,0.2007,0.2011,0.2005,0.2039,0.2048,0.2057,0.1951,0.195,0.195,0,0,0.2316,0.2294,0.2264,0.2232,0.2185,0.216,0.2154,0.21,0.2093,0.2069,0.2065,0.2076,0.2042,0.2049,0.2048,0.2078,0.2069,0.2086,0.2103,0.2139,0.2147,0.2153,0.2165,0.2173,0.2081,0.2081,0.2081,0,0.2328,0.2278,0.2251,0.2212,0.2189,0.2167,0.2134,0.2121,0.2074,0.2079,0.2072,0.2075,0.2064,0.2086,0.2102,0.2092,0.2102,0.2074,0.2146,0.2153,0.2159,0.217,0.2178,0.2084,0.2083,0.2083,0.2083,0,0.2284,0.2255,0.2234,0.2181,0.2162,0.2129,0.211,0.2108,0.2107,0.2098,0.2124,0.2117,0.2123,0.2135,0.212,0.217,0.216,0.2157,0.2125,0.2172,0.218,0.2187,0.2088,0.2087,0.2086,0.2085,0,0,0.2269,0.2214,0.2203,0.2183,0.2142,0.2117,0.2121,0.2113,0.2124,0.2123,0.2141,0.2161,0.2177,0.2178,0.2183,0.2206,0.2261,0.2198,0.2199,0.2206,0.2327,0.2214,0.2211,0.2275,0.2276,0.2277,0.2314,0,0.2234,0.217,0.2155,0.2113,0.2082,0.2085,0.2089,0.2097,0.2111,0.213,0.2168,0.2186,0.2189,0.2203,0.2235,0.226,0.2282,0.225,0.2284,0.2285,0.2175,0.2216,0.2042,0.2051,0.2321,0.2322,0.2323,0,0.2177,0.215,0.2098,0.2085,0.2072,0.2057,0.2074,0.2075,0.2121,0.214,0.2185,0.221,0.2263,0.2254,0.2325,0.2307,0.2319,0.2331,0.2333,0.2213,0.2185,0.2049,0.2054,0.1943,0.2334,0.2333,0.2333,0,0.2155,0.2108,0.2073,0.2056,0.204,0.2041,0.2045,0.2078,0.21,0.2151,0.2183,0.2244,0.228,0.2324,0.236,0.235,0.2426,0.2415,0.2323,0.2315,0.2163,0.2137,0.2055,0.2458,0.2458,0.2458,0.2457,0,0.2104,0.2076,0.206,0.2032,0.2022,0.2023,0.2029,0.2051,0.2101,0.2132,0.219,0.2232,0.2302,0.2355,0.2378,0.2372,0.2447,0.2326,0.2319,0.2172,0.2149,0.204,0.202,0.2459,0.2459,0.2458,0.2458,0,0.2065,0.2045,0.2013,0.2002,0.2001,0.1993,0.2014,0.2031,0.2082,0.2129,0.2154,0.2241,0.2294,0.2349,0.2411,0.2377,0.2288,0.2367,0.2175,0.2142,0.1906,0.1896,0.1767,0.1737,0.2255,0.2253,0.2251,0,0.2028,0.2008,0.1989,0.1981,0.197,0.1968,0.1976,0.2015,0.204,0.213,0.2156,0.2227,0.2262,0.2304,0.2241,0.2233,0.2203,0.2065,0.2,0.1861,0.1848,0.1796,0.178,0.1828,0.1823,0.1818,0.1815,0,0.1982,0.1981,0.1961,0.1953,0.1946,0.1942,0.1956,0.1975,0.2031,0.2074,0.2127,0.2162,0.2154,0.204,0.2006,0.1992,0.1896,0.1968,0.1886,0.1547,0.1427,0.1403,0.1835,0.1775,0.1779,0.1782,0.1784,0.1786,0.1957,0.1943,0.193,0.1919,0.1916,0.1913,0.1895,0.1925,0.1951,0.1976,0.2046,0.201,0.1863,0.1764,0.1739,0.1494,0.1601,0.1393,0.1408,0.1381,0.1285,0.1609,0.15,0.1502,0.1504,0.1506,0.1507,0,0.1915,0.1909,0.1903,0.1876,0.1857,0.1871,0.1877,0.185,0.1846,0.1842,0.1852,0.1628,0.1461,0.1335,0.1046,0.0929,0.0925,0.09,0.0796,0.0829,0.115,0.1061,0.0774,0.0774,0.0774,0.0774,0.0775,0.0775,0.1893,0.1865,0.1863,0.1819,0.1804,0.1757,0.1744,0.1719,0.1688,0.1538,0.1371,0.1284,0.1058,0.073,0.0499,0.05,0.0473,0.0377,0.0494,0.0696,0.0743,0.0788,0.0698,0.034,0.0339,0.0087,0.0084,0.0082]},{"header":{"parameterUnit":"m.s-1","parameterCategory":2,"la1":30.2991,"la2":30.254,"lo1":-89.0895,"lo2":-89.0444,"dy":0.0017,"dx":0.0017,"nx":28,"ny":28,"refTime":"2025-01-26T03:00:00:Z","depth":"0","parameterNumber":3,"parameterNumberName":"V-component_of_CURRENTS"},"data":[0,0,0,0,0,0,0,0,0,0,0,0,0,0,0,0,0,0,0,0,0,0,0,0,0,0,0,0,0,0,0,0,0,0,0,0,0,0,0,0,0,0,0,0,0,0,0,0,0,0,0,0,0,0,0,0,0,0,0.0282,0.0283,0,0.0293,0.0293,0.0293,0.0293,0.0293,0.0293,0.0293,0.0292,0.0292,0.0292,0,0,0,0,0,0,0,0,0,0,0,0,0,0.025,0.0251,0.0282,0.0283,0.0283,0.0293,0.0293,0.0293,0.0293,0.0293,0.0293,0.0293,0.0292,0.0292,0.0292,0,0,0,0,0,0,0,0,0,0,0,0,0,0.0262,0.0251,0.0282,0.0284,0.0285,0.0293,0.0293,0.0294,0.0293,0.0293,0.0293,0.0293,0.0292,0.0292,0.0292,0.0295,0,0,0.0292,0.0292,0,0,0,0,0,0,0,0,0.0262,0.0263,0.0284,0.0284,0.0285,0.0292,0.0282,0.0294,0.0293,0.029,0.0293,0.0293,0.0291,0.0292,0.0293,0.0295,0.0295,0.0292,0.0292,0.0292,0.0292,0,0,0,0,0,0,0,0.0261,0.0263,0.0286,0.0284,0.0285,0.0281,0.0283,0.0284,0.029,0.029,0.029,0.0292,0.0292,0.0293,0.0293,0.0295,0.0292,0.0292,0.0292,0.0293,0.0317,0.0318,0,0,0,0,0,0,0.0262,0.0262,0.0286,0.0286,0.0273,0.0282,0.0284,0.029,0.0291,0.0291,0.0292,0.0292,0.0293,0.0293,0.0293,0.032,0.0292,0.0293,0.0293,0.0316,0.0317,0.0318,0,0,0,0,0,0,0.0261,0.0264,0.0285,0.0275,0.0277,0.0283,0.0289,0.029,0.0292,0.0293,0.0293,0.0294,0.0293,0.0293,0.0301,0.0319,0.0293,0.0293,0.0316,0.0317,0.0318,0.0358,0,0,0,0,0,0,0.026,0.0263,0.0266,0.0275,0.0278,0.0294,0.0289,0.029,0.0294,0.0294,0.0295,0.0294,0.0293,0.0301,0.0301,0.0318,0.0293,0.0315,0.0316,0.0317,0.0356,0.0361,0.0364,0,0,0,0,0,0.0259,0.0269,0.0266,0.0269,0.0282,0.0295,0.0296,0.0298,0.0294,0.0299,0.0301,0.0294,0.0309,0.0302,0.0302,0.0319,0.0314,0.0316,0.0317,0.0355,0.036,0.0364,0,0,0,0,0,0,0.0258,0.027,0.0267,0.028,0.0286,0.0295,0.03,0.0299,0.0305,0.0305,0.0301,0.0302,0.0316,0.031,0.0303,0.0329,0.0311,0.0312,0.0339,0.0344,0.0348,0.0365,0.0293,0,0,0,0,0,0.0258,0.0268,0.0276,0.0285,0.0289,0.0293,0.0297,0.03,0.0306,0.0308,0.031,0.0313,0.0322,0.0326,0.033,0.0343,0.034,0.0354,0.0358,0.0361,0.0375,0.038,0.0386,0.0322,0.0322,0.0322,0,0,0.0261,0.0268,0.0273,0.0285,0.029,0.0305,0.0295,0.0306,0.0323,0.0307,0.0328,0.0326,0.0328,0.0346,0.0352,0.0344,0.0377,0.0363,0.0366,0.0378,0.0382,0.0389,0.0394,0.0323,0.0323,0.0323,0,0,0.0276,0.0277,0.0291,0.0298,0.0307,0.0313,0.0317,0.0326,0.0334,0.035,0.0348,0.0358,0.0364,0.0378,0.0383,0.041,0.0397,0.0406,0.0443,0.0448,0.0454,0.0458,0.0459,0.0464,0.041,0.041,0.041,0,0.0276,0.0297,0.0297,0.0312,0.0324,0.0319,0.034,0.0348,0.036,0.0376,0.0361,0.0391,0.0385,0.0423,0.0431,0.0422,0.0418,0.0425,0.0454,0.0459,0.0463,0.0463,0.0467,0.0412,0.0412,0.0411,0.0411,0,0.0304,0.0319,0.0328,0.0348,0.036,0.0376,0.0389,0.0403,0.0407,0.0418,0.045,0.0446,0.0468,0.0464,0.0456,0.0489,0.0475,0.0457,0.0443,0.0472,0.0469,0.0474,0.0415,0.0414,0.0414,0.0413,0,0,0.0309,0.0342,0.0344,0.0364,0.0381,0.0398,0.0427,0.0459,0.049,0.0494,0.0537,0.0544,0.0543,0.0549,0.0542,0.0543,0.0561,0.0515,0.0514,0.0519,0.0571,0.0555,0.0557,0.0546,0.0547,0.0548,0.0556,0,0.033,0.0372,0.0381,0.0423,0.0448,0.0457,0.0489,0.0517,0.0534,0.0572,0.0578,0.0609,0.0576,0.059,0.0589,0.0575,0.0574,0.0561,0.054,0.054,0.0525,0.0563,0.0585,0.0594,0.056,0.056,0.0561,0,0.0354,0.0382,0.0427,0.0475,0.0487,0.051,0.0566,0.0595,0.0639,0.0654,0.0683,0.0686,0.0711,0.0667,0.0664,0.0656,0.062,0.0596,0.0596,0.0573,0.0532,0.056,0.0602,0.0605,0.0566,0.0566,0.0566,0,0.0369,0.0414,0.0456,0.0469,0.052,0.0547,0.0575,0.0621,0.0661,0.0711,0.0744,0.0764,0.0782,0.0752,0.0708,0.0687,0.0692,0.0655,0.0607,0.0605,0.0618,0.0615,0.0665,0.0645,0.0645,0.0645,0.0645,0,0.0391,0.0424,0.0467,0.0488,0.0546,0.0572,0.0635,0.0665,0.0723,0.0786,0.079,0.0843,0.0801,0.08,0.0743,0.0701,0.0721,0.063,0.0614,0.0631,0.063,0.0626,0.0623,0.0645,0.0645,0.0645,0.0645,0,0.0406,0.0429,0.0481,0.0536,0.0554,0.0597,0.0668,0.0718,0.0764,0.0847,0.0869,0.0908,0.0915,0.0866,0.0821,0.075,0.0713,0.0676,0.0698,0.0685,0.0631,0.0629,0.0675,0.0685,0.0632,0.0632,0.0631,0,0.0422,0.0449,0.051,0.0542,0.0567,0.0629,0.0675,0.0732,0.079,0.0896,0.0943,0.0976,0.1027,0.0962,0.0852,0.0767,0.0737,0.0692,0.0653,0.0651,0.0637,0.0645,0.0652,0.0684,0.0684,0.0685,0.0685,0,0.0453,0.0469,0.0508,0.0569,0.0618,0.0682,0.0751,0.0803,0.0887,0.0971,0.1079,0.1133,0.109,0.1035,0.0898,0.0822,0.0722,0.0692,0.0695,0.0696,0.0707,0.0701,0.065,0.0687,0.0687,0.0686,0.0686,0.0686,0.0472,0.0499,0.0541,0.06,0.0657,0.0726,0.0783,0.0874,0.0982,0.1128,0.1172,0.1273,0.1179,0.1018,0.0928,0.0751,0.075,0.0685,0.0686,0.0697,0.0707,0.0657,0.0667,0.0667,0.0667,0.0666,0.0666,0,0.0487,0.0514,0.057,0.0634,0.0692,0.0722,0.0829,0.0904,0.1036,0.1191,0.131,0.1309,0.123,0.1081,0.0851,0.0764,0.0742,0.0715,0.0746,0.0753,0.0715,0.0716,0.0733,0.0733,0.0733,0.0733,0.0733,0.0733,0.0495,0.0532,0.0556,0.0642,0.0693,0.0779,0.0839,0.0968,0.1091,0.1268,0.133,0.1362,0.1232,0.1011,0.0845,0.0799,0.0793,0.0768,0.076,0.074,0.0737,0.0735,0.0736,0.0757,0.0757,0.0819,0.0819,0.0819]}],[{"header":{"parameterUnit":"m.s-1","parameterCategory":2,"la1":30.2991,"la2":30.254,"lo1":-89.0895,"lo2":-89.0444,"dy":0.0017,"dx":0.0017,"nx":28,"ny":28,"refTime":"2025-01-26T03:00:00:Z","depth":"2","parameterNumber":2,"parameterNumberName":"U-component_of_CURRENTS"},"data":[0,0,0,0,0,0,0,0,0,0,0,0,0,0,0,0,0,0,0,0,0,0,0,0,0,0,0,0,0,0,0,0,0,0,0,0,0,0,0,0,0,0,0,0,0,0,0,0,0,0,0,0,0,0,0,0,0,0,0.1392,0.1392,0,0.1376,0.1376,0.1376,0.1378,0.1378,0.1378,0.1378,0.1364,0.1364,0.1363,0,0,0,0,0,0,0,0,0,0,0,0,0,0.1426,0.1425,0.1392,0.1392,0.1392,0.1376,0.1376,0.1376,0.1377,0.1378,0.1378,0.1379,0.1365,0.1364,0.1363,0,0,0,0,0,0,0,0,0,0,0,0,0,0.141,0.1425,0.1392,0.1391,0.1391,0.1376,0.1376,0.1376,0.1377,0.1378,0.1378,0.1379,0.1365,0.1364,0.1363,0.1347,0,0,0.136,0.1359,0,0,0,0,0,0,0,0,0.1411,0.1409,0.1392,0.1391,0.1391,0.138,0.1383,0.1367,0.1377,0.1382,0.1378,0.1379,0.137,0.1368,0.1363,0.1347,0.1346,0.136,0.1359,0.1359,0.1358,0,0,0,0,0,0,0,0.1412,0.1409,0.1385,0.1391,0.1391,0.1392,0.1391,0.138,0.1373,0.1382,0.1382,0.1381,0.137,0.1364,0.1363,0.1346,0.136,0.1359,0.1358,0.1358,0.1389,0.1391,0,0,0,0,0,0,0.1414,0.141,0.1386,0.1385,0.1403,0.1391,0.1389,0.1383,0.1373,0.1372,0.1381,0.1381,0.1366,0.1364,0.1363,0.1395,0.1359,0.1358,0.1357,0.1388,0.139,0.1391,0,0,0,0,0,0,0.1415,0.1412,0.1386,0.1398,0.1395,0.139,0.1383,0.1382,0.1389,0.1372,0.1372,0.1389,0.1366,0.1364,0.1369,0.1392,0.1357,0.1356,0.1386,0.1388,0.139,0.1426,0,0,0,0,0,0,0.1416,0.1412,0.1411,0.1398,0.1395,0.1389,0.1382,0.1381,0.1387,0.1388,0.1379,0.1378,0.1366,0.137,0.1368,0.139,0.1356,0.1384,0.1387,0.139,0.1423,0.1429,0.1434,0,0,0,0,0,0.1417,0.1411,0.1411,0.1409,0.1392,0.139,0.1389,0.1386,0.1387,0.1393,0.139,0.1379,0.1386,0.137,0.1367,0.139,0.1383,0.1386,0.139,0.142,0.1428,0.1434,0,0,0,0,0,0,0.1423,0.141,0.141,0.14,0.1402,0.1391,0.1395,0.1393,0.1395,0.1399,0.1384,0.1383,0.14,0.1391,0.1373,0.141,0.1388,0.1391,0.1413,0.1419,0.1425,0.1418,0.1355,0,0,0,0,0,0.1424,0.1422,0.1412,0.141,0.141,0.1406,0.1406,0.1406,0.1403,0.1405,0.1396,0.1398,0.1408,0.141,0.1411,0.142,0.1419,0.1439,0.1445,0.1449,0.1444,0.1477,0.1485,0.1402,0.1402,0.1402,0,0,0.1421,0.1422,0.1416,0.1413,0.1414,0.1411,0.1408,0.1414,0.1416,0.1402,0.1405,0.1413,0.1416,0.1433,0.1441,0.1428,0.1473,0.1454,0.1457,0.1449,0.1481,0.1489,0.1496,0.1404,0.1404,0.1403,0,0,0.1422,0.1422,0.1419,0.1424,0.1432,0.1427,0.1433,0.1427,0.1431,0.1439,0.1437,0.1458,0.146,0.1468,0.1474,0.1511,0.1502,0.1522,0.154,0.1573,0.158,0.1585,0.159,0.1596,0.1524,0.1524,0.1524,0,0.1429,0.1417,0.142,0.1426,0.1429,0.1436,0.1435,0.1439,0.1436,0.1447,0.1449,0.1478,0.1478,0.1507,0.1523,0.1523,0.1531,0.1511,0.1579,0.1585,0.159,0.1594,0.16,0.1526,0.1526,0.1526,0.1525,0,0.142,0.142,0.1424,0.143,0.1435,0.1442,0.1445,0.1456,0.1467,0.1474,0.151,0.1518,0.154,0.1552,0.1545,0.1589,0.1579,0.1582,0.1558,0.1601,0.1602,0.1607,0.1529,0.1528,0.1528,0.1527,0,0,0.1416,0.1417,0.1421,0.1423,0.144,0.144,0.1457,0.1471,0.1487,0.151,0.1536,0.1567,0.1584,0.1592,0.1599,0.1622,0.1666,0.1619,0.162,0.1615,0.1725,0.1643,0.164,0.1687,0.1688,0.1689,0.1708,0,0.1414,0.1414,0.1419,0.1423,0.1418,0.1441,0.1454,0.1476,0.1499,0.1526,0.1565,0.1593,0.1598,0.1617,0.1646,0.1664,0.1684,0.1659,0.169,0.169,0.1606,0.1646,0.1466,0.1462,0.1713,0.1714,0.1715,0,0.1399,0.1402,0.14,0.1413,0.1416,0.1426,0.1456,0.147,0.1518,0.1543,0.1592,0.1619,0.1666,0.1663,0.172,0.1707,0.1718,0.1726,0.1727,0.1638,0.1619,0.1462,0.1462,0.1724,0.1723,0.1723,0.1722,0,0.1378,0.1388,0.1385,0.1391,0.1407,0.1425,0.144,0.148,0.1502,0.1558,0.1589,0.1648,0.1684,0.1721,0.1748,0.1743,0.1798,0.1795,0.1726,0.172,0.1564,0.1541,0.183,0.183,0.183,0.183,0.183,0,0.1366,0.1365,0.1378,0.1378,0.1389,0.1409,0.1434,0.1463,0.1513,0.1542,0.1599,0.1629,0.1704,0.1745,0.1762,0.1759,0.1817,0.1727,0.1724,0.1571,0.1549,0.1774,0.1767,0.183,0.183,0.183,0.183,0,0.134,0.1349,0.1345,0.1365,0.1377,0.1384,0.1429,0.1445,0.1498,0.1539,0.1563,0.1636,0.1679,0.1731,0.1784,0.1764,0.1775,0.1756,0.1556,0.1528,0.1667,0.1663,0.168,0.1677,0.1675,0.1673,0.1671,0,0.1319,0.1316,0.1332,0.1333,0.1346,0.1365,0.1379,0.1433,0.1453,0.153,0.1546,0.1611,0.1623,0.1663,0.1639,0.1639,0.1725,0.1478,0.143,0.1659,0.1655,0.1654,0.1652,0.124,0.1235,0.1231,0.1228,0,0.1285,0.13,0.1301,0.1299,0.1311,0.1318,0.1346,0.1364,0.1423,0.1449,0.1475,0.1491,0.151,0.1417,0.1421,0.1402,0.1463,0.1393,0.17,0.1303,0.1246,0.1241,0.1254,0.1192,0.1195,0.1198,0.12,0.1201,0.1265,0.1257,0.1261,0.1257,0.1268,0.1263,0.1249,0.1271,0.1282,0.1292,0.1354,0.1311,0.1304,0.1202,0.1148,0.1107,0.1231,0.1169,0.1182,0.1199,0.1141,0.1083,0.0987,0.0989,0.0991,0.0993,0.0994,0,0.1226,0.1226,0.1216,0.1207,0.119,0.1214,0.1216,0.1174,0.1144,0.1154,0.1142,0.0996,0.0909,0.0925,0.0781,0.0759,0.0754,0.0735,0.0716,0.0751,0.0783,0.0706,0.0435,0.0434,0.0432,0.0431,0,0,0.1209,0.1181,0.1168,0.1125,0.1123,0.1067,0.1049,0.0992,0.0967,0.0887,0.0839,0.0885,0.0892,0.067,0.0611,0.0502,0.0633,0.0469,0.0913,0.0927,0.0958,0.1021,0.0939,0,0,0,0,0]},{"header":{"parameterUnit":"m.s-1","parameterCategory":2,"la1":30.2991,"la2":30.254,"lo1":-89.0895,"lo2":-89.0444,"dy":0.0017,"dx":0.0017,"nx":28,"ny":28,"refTime":"2025-01-26T03:00:00:Z","depth":"2","parameterNumber":3,"parameterNumberName":"V-component_of_CURRENTS"},"data":[0,0,0,0,0,0,0,0,0,0,0,0,0,0,0,0,0,0,0,0,0,0,0,0,0,0,0,0,0,0,0,0,0,0,0,0,0,0,0,0,0,0,0,0,0,0,0,0,0,0,0,0,0,0,0,0,0,0,0.0115,0.0115,0,0.011,0.011,0.011,0.0104,0.0104,0.0104,0.0104,0.0096,0.0096,0.0096,0,0,0,0,0,0,0,0,0,0,0,0,0,0.0099,0.0099,0.0115,0.0115,0.0115,0.011,0.011,0.011,0.0104,0.0104,0.0104,0.0104,0.0096,0.0096,0.0096,0,0,0,0,0,0,0,0,0,0,0,0,0,0.01,0.0099,0.0115,0.0111,0.0111,0.011,0.011,0.011,0.0104,0.0104,0.0104,0.0104,0.0096,0.0096,0.0096,0.0096,0,0,0.0095,0.0095,0,0,0,0,0,0,0,0,0.01,0.0101,0.0112,0.0112,0.0111,0.0108,0.0102,0.0105,0.0104,0.0106,0.0104,0.0104,0.01,0.01,0.0098,0.0096,0.0095,0.0095,0.0095,0.0095,0.0095,0,0,0,0,0,0,0,0.01,0.0101,0.0112,0.0112,0.0112,0.0104,0.0104,0.0102,0.0103,0.0106,0.0105,0.0106,0.01,0.0099,0.0098,0.0095,0.0095,0.0095,0.0095,0.0095,0.0105,0.0105,0,0,0,0,0,0,0.0103,0.0101,0.0112,0.0112,0.0106,0.0104,0.0104,0.0109,0.0103,0.0102,0.0106,0.0106,0.0099,0.0098,0.0098,0.0112,0.0095,0.0095,0.0095,0.0105,0.0105,0.0106,0,0,0,0,0,0,0.0103,0.0104,0.0113,0.0107,0.0107,0.0105,0.0109,0.0109,0.0107,0.0104,0.0103,0.0106,0.0099,0.0098,0.0101,0.0111,0.0095,0.0095,0.0104,0.0105,0.0105,0.0131,0,0,0,0,0,0,0.0103,0.0104,0.0106,0.0107,0.0108,0.0114,0.0109,0.0109,0.0108,0.0108,0.0103,0.0102,0.0099,0.0101,0.01,0.011,0.0094,0.0104,0.0104,0.0105,0.0129,0.0132,0.0134,0,0,0,0,0,0.0102,0.0107,0.0106,0.0108,0.0111,0.0114,0.0114,0.0111,0.0108,0.0109,0.0108,0.0102,0.0105,0.0101,0.01,0.011,0.0103,0.0104,0.0105,0.0128,0.0131,0.0134,0,0,0,0,0,0,0.0099,0.0107,0.0106,0.0113,0.0114,0.0113,0.0114,0.0112,0.0111,0.0111,0.0106,0.0105,0.0112,0.0107,0.0102,0.0116,0.0104,0.0105,0.0122,0.0125,0.0127,0.0138,0.0094,0,0,0,0,0,0.01,0.0108,0.0111,0.0115,0.0116,0.0115,0.0115,0.0114,0.0114,0.0114,0.0112,0.0111,0.0115,0.0116,0.0116,0.0122,0.0118,0.0128,0.0131,0.0133,0.0141,0.0145,0.0148,0.0109,0.0109,0.0108,0,0,0.01,0.0105,0.0109,0.0115,0.0115,0.0123,0.0114,0.0117,0.0126,0.0113,0.0123,0.0119,0.0118,0.0127,0.0129,0.0124,0.0141,0.0134,0.0136,0.0143,0.0146,0.015,0.0153,0.0109,0.0109,0.0109,0,0,0.0106,0.0109,0.0118,0.0122,0.0125,0.0127,0.0129,0.013,0.0133,0.014,0.0136,0.014,0.014,0.0146,0.0148,0.0164,0.0153,0.0161,0.0185,0.0188,0.0191,0.0194,0.0187,0.0189,0.0164,0.0164,0.0164,0,0.0105,0.0119,0.0119,0.0129,0.0137,0.0131,0.0143,0.0146,0.0148,0.0158,0.0146,0.016,0.0153,0.0175,0.0178,0.0171,0.0166,0.0173,0.0191,0.0194,0.0197,0.0189,0.0191,0.0165,0.0165,0.0165,0.0165,0,0.0121,0.0131,0.0136,0.0152,0.0158,0.0166,0.0173,0.018,0.0182,0.0186,0.0203,0.0196,0.0207,0.0202,0.0194,0.0213,0.0201,0.0193,0.0184,0.0203,0.0193,0.0194,0.0167,0.0167,0.0166,0.0166,0,0,0.0123,0.0145,0.0147,0.0161,0.0172,0.0182,0.02,0.0219,0.0239,0.0236,0.0264,0.0261,0.0257,0.026,0.0251,0.0249,0.0254,0.0229,0.0229,0.0223,0.0254,0.0248,0.0249,0.0249,0.0249,0.025,0.0237,0,0.0136,0.0162,0.017,0.0198,0.0213,0.0221,0.0243,0.0259,0.0268,0.0292,0.029,0.0308,0.028,0.0288,0.0283,0.0266,0.0261,0.0258,0.0236,0.0236,0.023,0.0252,0.0258,0.0247,0.0238,0.0239,0.0239,0,0.0151,0.0169,0.0197,0.0233,0.0241,0.0258,0.0298,0.0317,0.0345,0.0353,0.0368,0.0365,0.0373,0.0343,0.0324,0.0323,0.0292,0.0271,0.027,0.026,0.0234,0.0229,0.0251,0.0241,0.0241,0.0241,0.0241,0,0.0159,0.0191,0.0217,0.0228,0.0263,0.0284,0.0307,0.0337,0.0368,0.0397,0.0421,0.0421,0.043,0.0398,0.0353,0.0341,0.0325,0.0304,0.0269,0.0267,0.0267,0.0264,0.029,0.029,0.029,0.029,0.029,0,0.0173,0.0195,0.0225,0.024,0.0284,0.0302,0.0353,0.0374,0.0416,0.0466,0.0456,0.049,0.0444,0.043,0.0377,0.0334,0.0346,0.0281,0.027,0.0274,0.0273,0.0264,0.0261,0.0289,0.029,0.029,0.029,0,0.0177,0.0194,0.023,0.027,0.0288,0.032,0.0386,0.0426,0.0457,0.0523,0.0538,0.0548,0.0533,0.0479,0.0428,0.0372,0.0325,0.0303,0.0306,0.0295,0.0255,0.0254,0.0267,0.0267,0.0267,0.0266,0.0266,0,0.0182,0.0199,0.025,0.0279,0.0299,0.0351,0.0394,0.0442,0.0491,0.0563,0.0601,0.0605,0.0622,0.054,0.0448,0.0364,0.0339,0.0297,0.0277,0.0269,0.0256,0.0255,0.0254,0.0279,0.0279,0.0279,0.0279,0,0.0191,0.0208,0.0239,0.0296,0.0343,0.0403,0.0469,0.0517,0.0587,0.0644,0.071,0.0728,0.0662,0.0587,0.0465,0.0397,0.0312,0.0295,0.0298,0.0285,0.028,0.0267,0.0266,0.0279,0.0279,0.0279,0.0279,0.0279,0.02,0.0222,0.0264,0.032,0.0376,0.0452,0.0509,0.0587,0.0674,0.0765,0.0774,0.079,0.0705,0.055,0.0454,0.033,0.0331,0.0271,0.0271,0.0271,0.0276,0.0271,0.0269,0.0269,0.0269,0.0269,0.0269,0,0.0212,0.0241,0.0289,0.0358,0.042,0.0451,0.0558,0.0622,0.0728,0.0793,0.0844,0.0747,0.0676,0.0566,0.0399,0.0305,0.0288,0.0257,0.0263,0.0263,0.0264,0.0268,0.0259,0.0259,0.0259,0.0258,0,0,0.022,0.0259,0.0284,0.0379,0.0434,0.0526,0.0589,0.0684,0.075,0.0811,0.0813,0.0818,0.0699,0.0573,0.0454,0.0361,0.0327,0.033,0.0347,0.0369,0.037,0.028,0.0289,0,0,0,0,0]}],[{"header":{"parameterUnit":"m.s-1","parameterCategory":2,"la1":30.2991,"la2":30.254,"lo1":-89.0895,"lo2":-89.0444,"dy":0.0017,"dx":0.0017,"nx":28,"ny":28,"refTime":"2025-01-26T03:00:00:Z","depth":"4","parameterNumber":2,"parameterNumberName":"U-component_of_CURRENTS"},"data":[0,0,0,0,0,0,0,0,0,0,0,0,0,0,0,0,0,0,0,0,0,0,0,0,0,0,0,0,0,0,0,0,0,0,0,0,0,0,0,0,0,0,0,0,0,0,0,0,0,0,0,0,0,0,0,0,0,0,0.066,0.066,0,0.0685,0.0685,0.0685,0.0711,0.0712,0.0712,0.0712,0.0748,0.0748,0.0749,0,0,0,0,0,0,0,0,0,0,0,0,0,0.0645,0.0645,0.066,0.066,0.0661,0.0685,0.0685,0.0685,0.0711,0.0712,0.0712,0.0713,0.0747,0.0748,0.0749,0,0,0,0,0,0,0,0,0,0,0,0,0,0.0658,0.0645,0.066,0.0677,0.0679,0.0685,0.0685,0.0686,0.0711,0.0712,0.0712,0.0713,0.0747,0.0748,0.0749,0.074,0,0,0.0751,0.0751,0,0,0,0,0,0,0,0,0.0657,0.0658,0.0674,0.0676,0.0678,0.0697,0.0693,0.0705,0.0711,0.0698,0.0712,0.0713,0.0732,0.0734,0.0735,0.0742,0.0743,0.0751,0.0752,0.0752,0.0752,0,0,0,0,0,0,0,0.0656,0.0657,0.0669,0.0675,0.0677,0.0687,0.069,0.0695,0.071,0.0699,0.0701,0.0705,0.0733,0.0734,0.0736,0.0744,0.0751,0.0752,0.0752,0.0753,0.0807,0.0808,0,0,0,0,0,0,0.0654,0.0656,0.0668,0.067,0.067,0.0687,0.069,0.0689,0.071,0.0714,0.0705,0.0706,0.0733,0.0735,0.0738,0.078,0.0752,0.0753,0.0753,0.0806,0.0807,0.0808,0,0,0,0,0,0,0.0653,0.0654,0.0667,0.0665,0.0667,0.0687,0.0686,0.0689,0.0711,0.0714,0.0718,0.0725,0.0733,0.0737,0.0761,0.078,0.0753,0.0754,0.0805,0.0806,0.0808,0.0832,0,0,0,0,0,0,0.0652,0.0654,0.0661,0.0664,0.0667,0.0682,0.0685,0.0689,0.0712,0.0715,0.0733,0.0736,0.0734,0.076,0.0762,0.078,0.0754,0.0803,0.0805,0.0807,0.083,0.0834,0.0837,0,0,0,0,0,0.0652,0.0655,0.066,0.0663,0.0673,0.0682,0.0685,0.07,0.0712,0.0722,0.0738,0.0736,0.0773,0.0761,0.0763,0.0782,0.0803,0.0805,0.0807,0.0828,0.0833,0.0837,0,0,0,0,0,0,0.065,0.0658,0.0664,0.0669,0.0681,0.0687,0.0701,0.0711,0.0731,0.0741,0.0745,0.0748,0.0777,0.0777,0.0764,0.0805,0.0789,0.0791,0.0804,0.0809,0.0813,0.0809,0.0755,0,0,0,0,0,0.0652,0.066,0.0667,0.0675,0.0682,0.0696,0.0705,0.0716,0.073,0.0741,0.0754,0.077,0.0784,0.0795,0.0805,0.0825,0.0828,0.0841,0.0845,0.0848,0.0847,0.0878,0.0884,0.0815,0.0815,0.0815,0,0,0.0656,0.0661,0.0667,0.0677,0.0688,0.0698,0.0704,0.0724,0.0737,0.074,0.0771,0.0784,0.0793,0.0816,0.0829,0.0821,0.0868,0.085,0.0853,0.0851,0.0881,0.0887,0.0893,0.0817,0.0816,0.0816,0,0,0.0661,0.0671,0.0679,0.0689,0.0709,0.0714,0.0725,0.0742,0.0758,0.0783,0.0792,0.0817,0.0839,0.0848,0.0854,0.0885,0.0887,0.0896,0.0913,0.0943,0.0948,0.0953,0.096,0.0966,0.0898,0.0898,0.0898,0,0.0668,0.0673,0.0685,0.0694,0.0705,0.0724,0.0736,0.075,0.0775,0.0793,0.0799,0.0845,0.0852,0.0879,0.089,0.0893,0.0906,0.0893,0.0947,0.0952,0.0957,0.0963,0.0969,0.09,0.09,0.0899,0.0899,0,0.0673,0.0684,0.0692,0.0708,0.0723,0.0737,0.0755,0.078,0.0804,0.0819,0.0862,0.0875,0.0905,0.0912,0.0909,0.095,0.0946,0.0948,0.0933,0.0966,0.0969,0.0975,0.0902,0.0901,0.0901,0.09,0,0,0.0671,0.069,0.0697,0.0705,0.0732,0.0742,0.0773,0.0801,0.0826,0.0859,0.0893,0.092,0.0941,0.0949,0.0957,0.0978,0.1017,0.0981,0.0981,0.0983,0.1076,0.0977,0.0973,0.1037,0.1039,0.104,0.1062,0,0.0674,0.0686,0.0701,0.0722,0.0729,0.0759,0.0782,0.0815,0.0848,0.0885,0.0915,0.095,0.0951,0.0974,0.0997,0.1014,0.1035,0.101,0.1048,0.1048,0.0953,0.0977,0.1044,0.1066,0.1067,0.1068,0.1069,0,0.0672,0.0681,0.0698,0.0723,0.0732,0.0753,0.0801,0.0825,0.0879,0.0909,0.0957,0.0982,0.1022,0.1019,0.1069,0.1058,0.1072,0.1078,0.108,0.0981,0.096,0.103,0.1079,0.1078,0.1077,0.1077,0.1076,0,0.0654,0.0679,0.0691,0.0701,0.0733,0.076,0.0788,0.084,0.0865,0.0934,0.0965,0.1017,0.1049,0.1082,0.1099,0.1097,0.1142,0.114,0.1062,0.1055,0.1126,0.1121,0.1179,0.1178,0.1178,0.1178,0.1178,0,0.0638,0.0652,0.0687,0.0693,0.0718,0.0753,0.0791,0.0831,0.0886,0.0912,0.0981,0.1005,0.1071,0.1101,0.1114,0.1096,0.116,0.1062,0.1056,0.1135,0.113,0.113,0.1124,0.1179,0.1179,0.1179,0.1179,0,0.061,0.0633,0.0649,0.0691,0.0708,0.0731,0.0788,0.0808,0.0875,0.0913,0.0939,0.1011,0.1047,0.1089,0.1133,0.11,0.11,0.1081,0.115,0.1148,0.0989,0.0985,0.0993,0.0989,0.0987,0.0984,0.0982,0,0.0592,0.0596,0.0642,0.0654,0.0677,0.0716,0.0735,0.0799,0.0818,0.0898,0.0905,0.097,0.1007,0.0991,0.1042,0.1054,0.1045,0.1033,0.1017,0.0978,0.0972,0.0972,0.0971,0.0978,0.0977,0.0976,0.0976,0,0.0557,0.0583,0.0597,0.0616,0.0642,0.066,0.0696,0.0702,0.0766,0.0835,0.0848,0.0868,0.0901,0.0929,0.0946,0.0954,0.1032,0.1004,0.101,0.0994,0.096,0.0957,0.0959,0.0966,0.0968,0.0968,0.0969,0,0.0538,0.0537,0.0555,0.0568,0.0594,0.0592,0.0619,0.0633,0.066,0.0746,0.0744,0.0816,0.0881,0.0877,0.089,0.089,0.0877,0.0844,0.0858,0.0869,0.0817,0.0755,0.0691,0,0,0,0,0,0.0514,0.0501,0.0502,0.0504,0.0525,0.0538,0.0581,0.0607,0.067,0.0652,0.0695,0.072,0.074,0.0779,0.0755,0.0836,0.0882,0.0802,0.0851,0.0913,0.0924,0.0875,0,0,0,0,0,0,0.0495,0.0496,0.0481,0.0448,0.0436,0.0445,0.0471,0.0512,0.0506,0.0581,0.0602,0.0657,0.0698,0.0745,0.0735,0.0745,0.0754,0.0847,0.0844,0.0907,0.0917,0.0926,0.0879,0,0,0,0,0]},{"header":{"parameterUnit":"m.s-1","parameterCategory":2,"la1":30.2991,"la2":30.254,"lo1":-89.0895,"lo2":-89.0444,"dy":0.0017,"dx":0.0017,"nx":28,"ny":28,"refTime":"2025-01-26T03:00:00:Z","depth":"4","parameterNumber":3,"parameterNumberName":"V-component_of_CURRENTS"},"data":[0,0,0,0,0,0,0,0,0,0,0,0,0,0,0,0,0,0,0,0,0,0,0,0,0,0,0,0,0,0,0,0,0,0,0,0,0,0,0,0,0,0,0,0,0,0,0,0,0,0,0,0,0,0,0,0,0,0,0.0111,0.011,0,0.0102,0.0102,0.0102,0.0099,0.0099,0.0099,0.0099,0.0094,0.0094,0.0094,0,0,0,0,0,0,0,0,0,0,0,0,0,0.0105,0.0105,0.0111,0.011,0.011,0.0102,0.0102,0.0102,0.0099,0.0099,0.0099,0.0099,0.0094,0.0094,0.0094,0,0,0,0,0,0,0,0,0,0,0,0,0,0.0103,0.0105,0.0111,0.0108,0.0108,0.0102,0.0102,0.0102,0.0099,0.0099,0.0099,0.0099,0.0095,0.0094,0.0094,0.009,0,0,0.0093,0.0093,0,0,0,0,0,0,0,0,0.0103,0.0103,0.0109,0.0108,0.0108,0.0102,0.0098,0.0098,0.0099,0.0102,0.0099,0.0099,0.0097,0.0097,0.0095,0.009,0.009,0.0093,0.0093,0.0093,0.0093,0,0,0,0,0,0,0,0.0103,0.0103,0.0107,0.0109,0.0108,0.0101,0.0101,0.0098,0.0099,0.0102,0.0102,0.0101,0.0097,0.0095,0.0095,0.009,0.0093,0.0093,0.0093,0.0093,0.0096,0.0096,0,0,0,0,0,0,0.0106,0.0104,0.0107,0.0107,0.0106,0.0101,0.0101,0.0104,0.0099,0.0099,0.0101,0.0101,0.0095,0.0095,0.0094,0.0103,0.0093,0.0093,0.0092,0.0095,0.0096,0.0096,0,0,0,0,0,0,0.0106,0.0106,0.0108,0.0105,0.0105,0.0101,0.0104,0.0103,0.0103,0.0098,0.0098,0.0101,0.0095,0.0095,0.0095,0.0102,0.0092,0.0092,0.0095,0.0096,0.0096,0.0112,0,0,0,0,0,0,0.0106,0.0106,0.0109,0.0105,0.0105,0.0105,0.0104,0.0103,0.0102,0.0102,0.0098,0.0098,0.0095,0.0096,0.0095,0.0102,0.0092,0.0095,0.0095,0.0096,0.0111,0.0112,0.0114,0,0,0,0,0,0.0106,0.0108,0.0109,0.0109,0.0108,0.0105,0.0105,0.0102,0.0102,0.0102,0.0101,0.0098,0.0099,0.0096,0.0095,0.0101,0.0095,0.0095,0.0096,0.011,0.0112,0.0114,0,0,0,0,0,0,0.0104,0.0108,0.0109,0.0112,0.011,0.0105,0.0104,0.0103,0.0102,0.0103,0.01,0.0099,0.0103,0.0099,0.0096,0.0104,0.0097,0.0097,0.0108,0.011,0.0111,0.0115,0.0092,0,0,0,0,0,0.0106,0.0111,0.011,0.0113,0.0112,0.0108,0.0107,0.0106,0.0104,0.0104,0.0102,0.0102,0.0104,0.0104,0.0104,0.0106,0.0101,0.011,0.0112,0.0113,0.0116,0.0114,0.0116,0.0098,0.0098,0.0098,0,0,0.0106,0.0109,0.0112,0.0113,0.0111,0.0113,0.0108,0.0107,0.0112,0.0103,0.0109,0.0107,0.0106,0.0111,0.0112,0.0108,0.0115,0.0114,0.0115,0.0117,0.0115,0.0116,0.0118,0.0098,0.0098,0.0098,0,0,0.0109,0.0112,0.0116,0.0117,0.0116,0.0116,0.0116,0.0114,0.0116,0.0119,0.0117,0.0119,0.0119,0.0121,0.0122,0.0131,0.0124,0.0132,0.0143,0.0141,0.0142,0.0144,0.0137,0.0137,0.0132,0.0132,0.0132,0,0.0108,0.0116,0.0116,0.0119,0.0123,0.0119,0.0124,0.0124,0.0123,0.0129,0.0123,0.013,0.0125,0.0136,0.0139,0.0135,0.0131,0.0136,0.0143,0.0144,0.0145,0.0138,0.0138,0.0133,0.0133,0.0133,0.0133,0,0.0114,0.012,0.0122,0.013,0.0132,0.0135,0.0138,0.0143,0.0145,0.0147,0.0156,0.015,0.0155,0.0153,0.0148,0.0156,0.0149,0.0145,0.0138,0.0148,0.014,0.014,0.0134,0.0134,0.0134,0.0134,0,0,0.0113,0.0124,0.0126,0.0135,0.014,0.0145,0.0155,0.0166,0.0179,0.0175,0.0191,0.0187,0.0183,0.0184,0.0178,0.0173,0.0172,0.0162,0.0162,0.0156,0.0165,0.0156,0.0155,0.0169,0.0169,0.0169,0.0155,0,0.0118,0.013,0.0136,0.0152,0.0158,0.0165,0.0179,0.0189,0.0195,0.0209,0.0205,0.0216,0.0196,0.0202,0.0193,0.0182,0.0173,0.0176,0.0156,0.0156,0.0147,0.0155,0.017,0.0155,0.0155,0.0155,0.0155,0,0.0122,0.0132,0.0147,0.017,0.0175,0.0186,0.0213,0.0226,0.0242,0.0248,0.0254,0.0251,0.025,0.0231,0.021,0.0213,0.0189,0.0174,0.0173,0.016,0.0147,0.0144,0.0155,0.0155,0.0155,0.0155,0.0155,0,0.0123,0.0142,0.0157,0.0164,0.0186,0.0201,0.0218,0.0238,0.0261,0.0278,0.0295,0.0285,0.0291,0.0262,0.0226,0.0221,0.0199,0.0188,0.0156,0.0155,0.016,0.0158,0.0169,0.0169,0.0169,0.0169,0.017,0,0.0126,0.0139,0.0161,0.017,0.0199,0.0213,0.0249,0.0263,0.0294,0.0327,0.0318,0.0337,0.03,0.0283,0.0241,0.02,0.0209,0.016,0.0153,0.0166,0.0166,0.0159,0.0158,0.0169,0.0169,0.0169,0.0169,0,0.0122,0.0135,0.0156,0.0185,0.02,0.0222,0.0275,0.0304,0.0327,0.0371,0.0382,0.0381,0.036,0.0316,0.027,0.0226,0.0184,0.0165,0.0183,0.0176,0.0137,0.0137,0.0132,0.0131,0.0131,0.0131,0.013,0,0.0119,0.0129,0.0167,0.019,0.0206,0.0246,0.0281,0.0317,0.0354,0.0399,0.0423,0.0417,0.0407,0.0336,0.028,0.0202,0.0184,0.0156,0.0143,0.0141,0.0134,0.0134,0.0135,0.013,0.013,0.013,0.013,0,0.0117,0.0131,0.0152,0.0198,0.0237,0.0286,0.0338,0.0367,0.0417,0.0436,0.046,0.043,0.0405,0.034,0.028,0.0221,0.0172,0.0153,0.0153,0.014,0.0138,0.0132,0.0133,0.0129,0.0129,0.0129,0.0129,0,0.0118,0.0132,0.0165,0.0209,0.0258,0.0317,0.0344,0.0393,0.043,0.0477,0.048,0.0453,0.0436,0.035,0.0295,0.0237,0.0216,0.0184,0.0182,0.0182,0.0196,0.0202,0.0209,0,0,0,0,0,0.0121,0.0143,0.0179,0.0231,0.0281,0.0316,0.0382,0.0409,0.0454,0.0473,0.048,0.0456,0.0383,0.0352,0.0293,0.028,0.0201,0.0207,0.0161,0.0122,0.0124,0.013,0,0,0,0,0,0,0.0125,0.0155,0.0176,0.0244,0.0283,0.0347,0.0392,0.0424,0.0437,0.0465,0.0428,0.0422,0.035,0.0412,0.0284,0.0268,0.0226,0.0178,0.0176,0.0122,0.0123,0.0124,0.0131,0,0,0,0,0]}]]